Location: Navalespino
(40.5894°N, 4.2660°W)
Time: 15:38:19
(UTC+00:00)

Cosmos 2151 Rocket - Pass Details

Date: 18 April 2024
Orbit: 615 x 638 km, 82.5° (Epoch: 23 May)

Event Time Altitude Azimuth Distance (km) Brightness Sun altitude
Exits shadow 19:55:46 - 157° (SSE) 2,253 6.0 -10.8°
Reaches altitude 10° 19:56:31 10° 153° (SSE) 1,977 5.7 -10.9°
Maximum altitude 20:00:24 32° 90° (E) 1,067 4.3 -11.6°
Drops below altitude 10° 20:04:21 10° 28° (NNE) 2,002 6.2 -12.2°
Sets 20:06:46 0° 18° (NNE) 2,918 7.1 -12.6°
